Location: USNO
(38.9242°N, 77.0663°W)
Time: 09:30:54
(UTC-05:00)

Daily predictions for brighter satellites

Satellite Brightness Start Highest point End
(mag) Time Altitude Azimuth Time Altitude Azimuth Time Altitude Azimuth
CSL-04 Rocket 4.5 17:11:11 10° S 17:16:31 59° WSW 17:22:00 10° NNW
Cosmos 1536 Rocket 4.5 17:15:20 10° SSE 17:19:11 29° E 17:23:05 10° NNE
Tiangong 1 2.9 17:20:37 10° SSW 17:22:52 19° SE 17:25:08 10° E
USA 234 3.6 17:17:57 10° NE 17:24:26 65° NW 17:30:52 10° WSW
SPOT 3 Rocket 3.6 17:19:22 10° SSE 17:24:28 61° ENE 17:29:35 10° N
Okean 1 4.2 17:22:48 10° SSE 17:26:19 29° E 17:29:50 10° NNE
Meteor 1-18 Rocket 4.5 17:21:52 10° SSE 17:27:16 50° E 17:32:47 10° NNE
YAOGAN 1 2.7 17:23:16 10° SSE 17:27:29 55° ENE 17:31:44 10° N
Cosmos 1536 3.9 17:24:55 10° NNW 17:28:53 51° W 17:32:50 10° S
Cosmos 1844 Rocket 2.9 17:24:34 10° SSW 17:30:09 75° WNW 17:35:48 10° NNE
Cosmos 1812 3.0 17:26:56 10° SSE 17:30:37 45° E 17:34:20 10° NNE
BREEZE M DEB (TANK) 4.0 17:20:14 10° SW 17:32:10 48° SSE 17:35:33 13° ENE
EP 2 4.2 17:33:44 10° SSW 17:36:19 62° ESE 17:38:30 14° NE
AQUARIUS 4.1 17:32:12 10° SSE 17:36:41 78° ENE 17:41:12 10° N
COSMOS 2487 4.1 17:34:32 10° NNE 17:36:48 16° ENE 17:38:37 12° E
USA 32 4.0 17:31:58 10° S 17:37:11 84° E 17:42:26 10° N
NOSS 3-3 (A) 4.1 17:31:25 10° SSW 17:37:24 58° ESE 17:43:48 10° NE
NOSS 3-3 (C) 4.1 17:31:31 10° SSW 17:37:30 57° ESE 17:43:54 10° NE
Meteor 2-19 Rocket 4.4 17:32:51 10° N 17:38:56 79° E 17:44:59 10° S
ISS -1.5 17:36:44 10° W 17:39:29 24° NNW 17:42:12 10° NNE
SL-8 Rocket 4.0 17:34:18 10° N 17:40:30 90° W 17:46:40 10° S
Cosmos 1346 Rocket 3.7 17:38:55 10° SSE 17:42:18 28° E 17:45:20 12° NE
IDEFIX/ARIANE 42P 2.6 17:39:46 10° SSE 17:44:59 90° WSW 17:50:12 10° NNW
CORIOLIS 4.1 17:40:01 10° SSE 17:45:25 82° ENE 17:50:50 10° NNW
Cosmos 1844 3.9 17:41:21 10° SSW 17:46:54 73° WNW 17:52:29 10° NNE
ASTRO F (AKARI) 4.1 17:44:19 10° NNE 17:47:26 65° E 17:50:33 10° S
ATLAS 2AS CENTAUR R/B 3.0 17:39:20 10° NNW 17:47:28 79° NE 17:54:59 10° SE
Cosmos 494 Rocket 4.0 17:42:27 10° NNW 17:47:41 66° ENE 17:52:54 10° SSE
Cosmos 2297 4.4 17:44:20 10° SSE 17:49:16 32° ESE 17:53:05 15° NE
Cosmos 1455 Rocket 3.0 17:45:10 10° N 17:49:35 75° E 17:54:00 10° SSE
SKYMED 2 4.0 17:46:21 10° NNE 17:50:27 41° E 17:54:33 10° S
BREEZE-M DEB (TANK) 4.3 17:45:24 10° WNW 17:51:20 49° SW 17:54:51 10° SSE
Cosmos 2366 rocket 4.0 17:45:23 10° N 17:51:46 81° E 17:58:04 10° S
CZ-3B DEB 2.3 17:50:58 10° WSW 17:54:27 64° NW 18:02:17 13° NE
Cosmos 2218 Rocket 4.1 17:50:06 10° N 17:56:24 82° W 18:02:35 10° S
MSX 3.8 17:51:55 10° SSE 17:57:40 79° ENE 18:03:26 10° N
CZ-4 R/B 3.1 17:58:06 10° SSW 18:02:00 38° W 18:05:55 10° NNW
Thor Agena Rocket 4.3 17:57:26 10° N 18:02:30 54° WNW 18:07:36 10° SSW
SMAP 3.8 17:58:20 10° S 18:02:53 55° W 18:07:28 10° NNW
Cosmos 1809 Rocket 4.5 17:57:09 10° N 18:03:11 55° E 18:09:09 10° SSE
Cosmos 2278 Rocket 2.2 17:57:43 10° SSW 18:03:23 88° WNW 18:09:04 10° NNE
Abrixas 4.4 18:01:40 10° NNW 18:03:36 16° N 18:03:36 16° N
SL-24 DEB 4.2 18:00:34 10° N 18:05:20 79° E 18:10:01 10° S
Cosmos 1238 Rocket 3.5 18:03:58 10° SSW 18:06:46 39° W 18:09:37 10° N
OTV 4 3.2 18:05:59 10° WSW 18:08:03 17° SSW 18:10:08 10° SSE
BREEZE-M R/B 4.4 17:57:07 10° WSW 18:08:43 77° NW 18:12:20 23° NE
CZ-2C R/B 3.5 18:04:21 10° S 18:09:09 49° W 18:14:06 10° NNW
Timation 2 Rocket 4.4 18:04:05 10° NNW 18:10:37 45° ENE 18:17:10 10° SE
Cosmos 1975 2.7 18:07:50 10° N 18:11:56 88° E 18:15:58 10° S
MONITOR-E 4.4 18:08:54 10° S 18:12:04 75° WSW 18:15:17 10° NNW
Meteor 1-12 Rocket 4.4 18:07:00 10° NNW 18:12:48 80° W 18:18:40 10° S
Cosmos 2251 Rocket 4.1 18:09:03 10° NNW 18:14:19 61° WSW 18:19:32 10° S
Genesis I 3.2 18:18:47 10° NNW 18:22:38 53° NE 18:23:18 46° E
NOAA 12 4.2 18:19:53 10° SE 18:24:58 50° ENE 18:30:02 10° N
OE (NEXTSAT) 4.4 18:22:09 10° WSW 18:25:44 74° NNW 18:26:20 57° NE
Cosmos 1821 Rocket 4.1 18:20:45 10° N 18:26:34 45° ENE 18:32:22 10° SSE
Cosmos 1484 Rocket 3.1 18:24:32 10° S 18:28:16 64° W 18:31:59 10° NNW
TIMED 4.4 18:24:10 10° S 18:28:30 69° ESE 18:30:00 39° NE
SL-8 R/B 4.2 18:24:25 10° WSW 18:29:04 53° NNW 18:30:50 34° NNE
Cosmos 2082 Rocket 2.3 18:24:36 10° NNW 18:30:07 50° ENE 18:33:41 21° SE
DMSP B5D1-3 4.4 18:25:26 10° NNE 18:30:37 83° ESE 18:35:45 10° SSW
Meteor 1-13 Rocket 4.1 18:25:17 10° S 18:30:54 77° E 18:36:42 10° NNE
Cosmos 1833 Rocket 2.9 18:26:21 10° N 18:31:44 43° ENE 18:33:05 37° E
METEOR-M 4.2 18:27:56 10° SE 18:33:05 50° ENE 18:38:14 10° N
Meteor 2-21 4.4 18:27:09 10° N 18:33:22 87° W 18:39:30 10° S
NOSS 2-1 (D) 3.5 18:29:57 10° SSW 18:33:30 51° SE 18:33:30 51° SE
NOSS 2-1 (C) 3.5 18:30:38 10° SSW 18:34:09 50° SE 18:34:09 50° SE
COSMO-SKYMED 1 3.2 18:34:15 10° N 18:38:30 54° WNW 18:42:43 10° SSW
Cosmos 1500 4.2 18:38:21 10° NNW 18:42:01 46° W 18:45:42 10° SSW
Meteor 1-23 Rocket 4.4 18:37:31 10° SSE 18:43:00 48° E 18:43:21 47° E
Meteor 1-28 Rocket 3.3 18:45:29 56° NNW 18:46:10 72° WNW 18:49:57 10° SSW
Nadezhda 3 Rocket 4.2 18:41:47 10° SSW 18:47:57 71° W 18:54:13 10° N
NOSS 2-1 (E) 3.7 18:49:04 10° SSW 18:52:08 55° S 18:52:08 55° S
Timation 1 Rocket 4.2 18:47:08 10° SSW 18:53:06 90° NE 18:55:27 39° NNE
Meteor 2-14 Rocket 4.5 18:49:13 10° N 18:55:23 79° W 19:01:30 10° S
GEOS 3 Rocket 3.6 18:53:31 26° SSE 18:56:27 80° SW 19:01:35 10° NW
Meteor 2-4 Rocket 3.4 18:52:28 10° S 18:57:50 76° E 18:58:30 66° NE
Tiangong 1 3.3 18:55:48 10° WSW 18:57:11 24° WSW 18:57:11 24° WSW
Cosmos 2056 Rocket 4.1 18:56:53 10° S 19:00:49 44° SSE 19:00:49 44° SSE
Cosmos 1025 Rocket 3.7 19:04:11 10° SSW 19:07:27 49° SSW 19:07:27 49° SSW
ATLAS 3B CENTAUR R/B 3.8 18:57:34 10° WSW 19:13:09 43° SSW 19:15:58 32° SSE
Cosmos 921 Rocket 4.1 19:10:24 10° SW 19:14:24 41° WNW 19:14:35 41° WNW
Cosmos 1624 Rocket 4.5 19:10:46 10° SSW 19:14:32 50° S 19:14:32 50° S
Cosmos 1371 Rocket 4.2 19:15:03 10° SSW 19:20:09 71° W 19:20:09 71° W
BREEZE M DEB (TANK) 4.0 19:17:03 10° NW 19:21:35 62° NE 19:21:54 61° NE
NOSS 3-4 (A) 4.0 19:16:11 10° NNW 19:21:59 53° NNE 19:21:59 53° NNE
NOSS 3-4 (C) 4.0 19:16:17 10° NNW 19:22:03 53° NNE 19:22:03 53° NNE
Cosmos 2082 Rocket 4.4 20:09:37 10° NW 20:13:46 21° W 20:15:50 18° SW
